Regional Weather Roundup
Issued by NWS

Home | Current Version | Previous Version | Graphics & Text | Print | Product List | Glossary On
Versions: 1 2 3 4 5 6 7 8 9 10 11 12 13 14 15 16 17 18 19 20 21 22 23 24 25 26 27 28 29 30 31 32 33 34 35 36 37 38 39 40 41 42 43 44 45 46 47 48 49 50
301
ASUS45 KABQ 210310
RWRNM
NEW MEXICO REGIONAL WEATHER ROUNDUP
NATIONAL WEATHER SERVICE ALBUQUERQUE NM
800 PM MST FRI JAN 20 2017

NOTE: "FAIR" MEANS FEW OR NO CLOUDS BELOW 12,000 FEET AGL WITH NO
       SIGNIFICANT WEATHER OR OBSTRUCTIONS TO VISION.

      THIS PRODUCT IS RELEASED AS TWO VERSIONS.  ONE VERSION NEAR
      THE TOP OF THE HOUR CONTAINING PRELIMINARY DATA FROM ALBUQUERQUE
      AND OTHER STATIONS.  A FINAL VERSION WITH ADDITIONAL DATA IS
      ISSUED ABOUT 10 MINUTES AFTER THE HOUR.

NMZ501-503-504-510>518-210400-
NORTHWEST PLATEAU/NORTHCENTRAL MOUNTAINS

CITY           SKY/WX    TMP DP  RH WIND       PRES   REMARKS
FARMINGTON     LGT SNOW  32  31  96 E10       29.57F FOG     WCI  24
LOS ALAMOS     LGT SNOW  30  30 100 S6        29.63S WCI  24
SANTA FE       LGT SNOW  31  30  96 SE3       29.63S FOG
TAOS           CLOUDY    30  16  55 S7        29.61S WCI  23
ANGEL FIRE     LGT SNOW  24  19  81 W16       29.58F WCI  11

$$
NMZ402-403-502-505>509-210400-
WESTCENTRAL MOUNTAINS/SOUTHWEST MOUNTAINS

CITY           SKY/WX    TMP DP  RH WIND       PRES   REMARKS
GALLUP         FLURRIES  32  30  92 SW7       29.58F WCI  26
GRANTS         FLURRIES  32  32  99 SE9       29.62S WCI  25
SILVER CITY    LGT RAIN  39  36  86 SW10G17   29.70F WCI  33

$$
NMZ407-409-411-412-210400-
SOUTHERN DESERTS

CITY           SKY/WX    TMP DP  RH WIND       PRES   REMARKS
DEMING         LGT RAIN  46  37  71 W10       29.69F
LAS CRUCES     CLOUDY    48  31  51 SW8       29.71S
HOLLOMAN AFB   FAIR      49  34  56 VRB6      29.71F
ALAMOGORDO     MOCLDY    46  34  61 SE8       29.70F
T OR C         CLOUDY    45  34  65 S10       29.62F

$$
NMZ519>523-210400-
CENTRAL VALLEYS/CENTRAL HIGHLANDS

CITY           SKY/WX    TMP DP  RH WIND       PRES   REMARKS
ALBUQUERQUE    CLOUDY    37  35  92 NE3       29.64F
DOUBLE EAGLE   FOG       32  32 100 CALM      29.64F VSB 1/4
MORIARTY ARPT  CLOUDY    32  30  92 SE8       29.65R WCI  25
CLINES CORNERS FOG       30  28  92 W20       29.61S VSB 1/4 WCI  17
BELEN          CLOUDY    38  38 100 NE5       29.63F WCI  34
SOCORRO        CLOUDY    43  31  62 SE8       29.62S

$$
NMZ524>526-539-540-210400-
SOUTHCENTRAL MOUNTAINS

CITY           SKY/WX    TMP DP  RH WIND       PRES   REMARKS
RUIDOSO        FAIR      36  27  69 W18G24    29.66F WCI  25

$$
NMZ527>531-210400-
NORTHEAST HIGHLANDS/NORTHEAST PLAINS

CITY           SKY/WX    TMP DP  RH WIND       PRES   REMARKS
LAS VEGAS      FAIR      31  23  72 SW20      29.56F WCI  19
RATON          FAIR      28  16  60 NW7       29.51S WCI  21
CLAYTON        FAIR      35  25  66 SW9       29.51S WCI  28

$$
NMZ532>537-210400-
EASTCENTRAL PLAINS

CITY           SKY/WX    TMP DP  RH WIND       PRES   REMARKS
TUCUMCARI      CLOUDY    48  28  46 W16       29.58S
CANNON AFB     FAIR      42  31  64 NW8       29.62S
CLOVIS AIRPORT FAIR      39  27  60 W8        29.62F WCI  34

$$
NMZ028-029-538-210400-
SOUTHEAST PLAINS

CITY           SKY/WX    TMP DP  RH WIND       PRES   REMARKS
ROSWELL        FAIR      45  30  55 S6        29.62S
ARTESIA        FAIR      45  34  65 S12       29.65F
CARLSBAD       FAIR      55  29  36 VRB5      29.65S


$$




USA.gov is the U.S. government's official web portal to all federal, state and local government web resources and services.